Regional Weather Roundup
Issued by NWS Mt. Holly, NJ

Home | Current Version | Previous Version | Text Only | Print | Product List | Glossary On
Versions: 1 2 3 4 5 6 7 8 9 10 11 12 13 14 15 16 17 18 19 20 21 22 23 24 25 26 27 28 29 30 31 32 33 34 35 36 37 38 39 40 41 42 43 44 45 46 47 48 49 50
000
ASUS41 KPHI 062011
RWRPHI

REGIONAL WEATHER ROUNDUP
NATIONAL WEATHER SERVICE MOUNT HOLLY NJ
300 PM EST FRI MAR 06 2015

NOTE:  "FAIR" INDICATES FEW OR NO CLOUDS BELOW 12,000 FEET WITH NO
SIGNIFICANT WEATHER AND/OR OBSTRUCTIONS TO VISIBILITY.

 * = STATION DOES NOT REPORT PRECIPITATION (E.G. RAIN, SNOW, ETC.)
        OR FOG.

NJZ015>026-062100-
SOUTHERN NEW JERSEY

CITY           SKY/WX    TMP DP  RH WIND       PRES   REMARKS
POMONA         MOSUNNY   24  13  62 CALM      30.48F
RIO GRANDE*    MOSUNNY   23   9  54 W9        30.50F WCI  13
MILLVILLE      SUNNY     25  32 100 W5        30.48F WCI  19
WRIGHTSTOWN    SUNNY     24   8  50 CALM      30.45F
MOUNT HOLLY    SUNNY     25   5  42 CALM      30.49F
TRENTON        SUNNY     23   4  44 SW3       30.46F

$$
NJZ001>014-062100-
NORTHERN NEW JERSEY

CITY           SKY/WX    TMP DP  RH WIND       PRES   REMARKS
SUSSEX         SUNNY     25   0  33 SW7       30.41F WCI  17
ANDOVER*         N/A     24   1  36 SW8       30.41F WCI  15
MORRISTOWN     SUNNY     27   5  39 CALM      30.46F
NEWARK         MOSUNNY   26   4  38 SW3       30.46F
TETERBORO      SUNNY     25   2  37 SE5       30.45F WCI  19
CALDWELL       SUNNY     25   1  35 CALM      30.45F
SOMERVILLE     SUNNY     27   6  41 NW6       30.44F WCI  20
ALLAIRE*       SUNNY     25   3  39 CALM      30.46F
TOMS RIVER*    PTSUNNY   25  10  54 CALM      30.46F

$$
PAZ043-044-047-054-055-060>062-066>071-062100-
EASTERN PENNSYLVANIA

CITY           SKY/WX    TMP DP  RH WIND       PRES   REMARKS
PHILADELPHIA   SUNNY     25   8  48 VRB3      30.49F
NORTH PHILA    SUNNY     27  14  58 VRB3      30.49F
BLUE BELL      SUNNY     27  12  54 NW6       30.46F WCI  20
DOYLESTOWN     SUNNY     23   7  50 NW3       30.44F
QUAKERTOWN*    SUNNY     23   5  46 NW3       30.45F
POTTSTOWN      SUNNY     22   3  44 W3        30.47F
LANCASTER      SUNNY     20   4  50 W7        30.47F WCI  11
COATESVILLE    SUNNY     19   9  63 W8        30.45F WCI   9
READING        SUNNY     22   3  44 SW5       30.46F WCI  16
ALLENTOWN      SUNNY     22   4  46 S5        30.44F WCI  16
MOUNT POCONO   SUNNY     22  -2  35 NW6       30.28F WCI  14
HAZLETON       SUNNY     21   0  39 W5        30.36F WCI  15
WILKES BARRE   SUNNY     23   2  40 W7        30.37F WCI  15

$$
DEZALL-MDZ008-012-015-019-020-062100-
DELAWARE AND EASTERN MARYLAND

CITY           SKY/WX    TMP DP  RH WIND       PRES   REMARKS
WILMINGTON     SUNNY     25   6  44 VRB5      30.49F WCI  19
DOVER          SUNNY     22   9  56 N5        30.50F WCI  16
GEORGETOWN     SUNNY     25  10  53 NE7       30.50F WCI  17
EASTON         SUNNY     25   9  50 NE6       30.54F WCI  18
PATUXENT       MOSUNNY   21   7  54 NE9       30.51F WCI  11
OCEAN CITY     MOSUNNY   25  14  63 NE10      30.50F WCI  15
WALLOPS ISLAND MOSUNNY   26  18  71 E13       30.49F WCI  15
CAMBRIDGE      SUNNY     27   9  46 NW3       30.50F
SALISBURY      MOSUNNY   29  13  51 CALM      30.48F

$$
PAZ001-021-NYZ056-072-MDZ011-DCZ001-062100-
OTHER NEARBY LOCATIONS

CITY           SKY/WX    TMP DP  RH WIND       PRES   REMARKS
HARRISBURG     MOSUNNY   21   3  45 NW8       30.47F WCI  11
STATE COLLEGE  SUNNY     23   1  39 SW8       30.36F WCI  14
WILLIAMSPORT   SUNNY     24   2  38 VRB5      30.42F WCI  18
BINGHAMTON     SUNNY     18  -3  39 W7        30.29F WCI   9
NEW YORK CITY  SUNNY     25   3  38 CALM      30.47F
BALTIMORE      SUNNY     26   6  42 CALM      30.48F
WASHINGTON DC  MOSUNNY   29   6  38 N3        30.50F

$$



USA.gov is the U.S. government's official web portal to all federal, state and local government web resources and services.